カタログに戻る

THOR ABLESTAR DEB

運用中LEO
NORAD 329·DEBRIS·🇺🇸 United States

打ち上げ Jun 29, 1961 から Cape Canaveral Space Force Station

Loading…

次のパス (今後24時間)

TLE

最新Source: Space-Track

元期: Sep 14, 2026, 03:46 UTC

1 00329U 61015DF  26257.15694781  .00000030  00000-0  11858-3 0  9999
2 00329  66.7807 165.9109 0120315 294.4095 214.8384 13.66146827242165

AllMySatでTHOR ABLESTAR DEBをリアルタイム追跡

Download on the App Store